{"data":{"norad_id":57364,"intl_designator":"2023-099AN","name":"STARLINK-6338","alt_names":[],"object_type":"PAYLOAD","status":"ACTIVE","operator":null,"country":"US","launch_date":"2023-07-16","launch_site_code":"AFETR","launch_vehicle":null,"mission":null,"orbit_class":"UNKNOWN","rcs_meters":null,"size_class":null,"mass_kg":null,"dimensions":null,"purposes":["comms"],"wikipedia_slug":null,"has_3d_model":false,"image_url":null,"decayed_at":null,"tle_current":{"epoch":"2026-09-19T05:52:56.144064Z","epoch_age_seconds":232754,"freshness":"STALE","line1":"1 57364U 23099AN  26262.24509426  .00002792  00000+0  11089-3 0  9999","line2":"2 57364  43.0013 228.3665 0001335 266.4159  93.6540 15.27590963175798","mean_motion":15.27590963,"eccentricity":0.0001335,"inclination_deg":43.0013,"raan_deg":228.3665,"arg_perigee_deg":266.4159,"mean_anomaly_deg":93.654,"bstar":0.00011089,"rev_number":17579,"period_min":94.266072193306,"perigee_km":482.10030510864,"apogee_km":483.93223303148,"semimajor_km":6861.1532690701,"source":"CELESTRAK","updated_at":"2026-09-21T09:00:33.603464Z"}}}